OBJECT Y, 62399

Orbit data source: Space-Track

You're viewing an Uncataloged Satellite

Recently launched and/or uncataloged satellites may have evolving metadata. Metadata may include but not limited to: Owner, Maufacturer, Bus, Motor, and Mission.

OBJECT Y, 62399 is a satellite in LEO that was launched on Sat, 21 Dec 2024 UTC via an FALCON 9 launch vehicle from the Air Force Western Test Range (AFWTR). Unknown objects in Earth's orbit typically refer to objects detected orbiting the Earth but have not yet been identified or cataloged. These objects could be anything from previously untracked satellites, spent rocket stages, debris from satellite collisions, or even natural meteoroids temporarily captured by Earth's gravity.

Loading next visibility...
Identifier
62399, 2024-247Y
Orbit
LEO
Country
Flag of TBDTBD
Related business
None
Manufacturer
Unknown
Mission
Operational Commercial Communications
Bus & Motor
Unknown
Mass
Unknown
Launch date (UTC)
2024-12-21 (1 year ago)
Launch vehicle
FALCON 9
Launch site
Air Force Western Test Range (AFWTR)
Object type
Unknown
Shape & HBR
Box, 0.0 m
Radar Cross Section
0.004 m², Small (<0.1 m²)

Expand to show TLE details & history
Last TLE update: 13 hours ago

TLE from 13 hours ago
0 OBJECT Y
1 62399U 24247Y   26094.06740748  .00062453  00000-0  13339-2 0  9996
2 62399  44.9981 311.9031 0007951 187.2972 172.7803 15.44041112 71933
Epoch: 2026-04-04T01:37Z
TLE epoch observation values (Epoch: 2026-04-04T01:37:04.006Z)
Latitude
0.00001°
Longitude
95.24391°
Altitude
439.568 km
Speed
7.647 km/s
True Right ascension
20h 47m 36s
True Declination
0° 00' 00"
Sunlit
Object was in daylight at epoch
Visualization orbit readout
Latitude
Unknown
Longitude
Unknown
Altitude
Unknown
Speed
Unknown
Apparent Right ascension
Unknown
Apparent Declination
Unknown
Sunlit
N/A
Visualization observer readout
Local Sidereal Time
20:14:38
Azimuth
Unknown
Elevation
Unknown
Doppler factor
Unknown
Orbital elements
Apogee altitude
441.236 km
Perigee altitude
430.4 km
Semi-major axis
6,813.955 km
Eccentricity
0.0008
Inclination
44.9981°
RAAN
311.9031°
Arg. of periapsis
187.2972°
True anomaly
172.79174°
Mean anomaly
172.7803°
Eccentric anomaly
172.78602°
Mean motion
3.85873 °/min
Orbital period
93.29 mins
BSTAR
0.0013339
Loading maneuver chart data...
Computing Atmospheric mass density...
Loading historical data...
Loading historical data...
Loading historical data...
Loading historical data...
Loading historical data...
Loading historical data...
Loading historical data...

Documentation

Showing up to 5 results
|